Погода в Долишнем Шепоте

Украина / Черновицкая область     48°00′44″N   25°17′16″E
темп.,
°C
ветер,
м/с
пор.,
м/с
влажн.,
%
обл.,
%
осадки,
мм/ч
давл.,
гПа
погр.,
м
8 марта, пн
пн823:00−6юз23750 0.0 102098
02:00−7юз22790 0.0 101974
05:00−7юз228314 0.0 101755
08:00−6юз227734 0.0 101791
11:00+1з465452 0.0 10161036
14:00+1зсз355976 0.1 10151212
17:00−3с3694100 2.7 1016521
20:00−5с3794100 5.0 1019803
9 марта, вт
вт923:00−7зсз1393100 0.5 1021199
02:00−8зюз119398 0.5 102227
05:00−10юз119342 0.0 102224
08:00−8юз118222 0.0 102278
11:00−2с226026 0.0 10221030
14:00−1ссв216163 0.1 10221028
17:00−3всв2381100 0.1 1021517
20:00−6в1295100 0.5 1023140
10 марта, ср
ср1023:00−7юв129798 0.1 102361
02:00−8ююв129794 0.1 102262
05:00−7ююв1296100 0.0 102150
08:00−5юв1290100 0.1 1021186
11:00−1всв1174100 0.2 1020546
14:00−1св2379100 0.3 1020564
17:00−3ссв2492100 0.8 1019371
20:00−4с2497100 1.8 1022236
11 марта, чт
чт1123:00−5ссз2497100 0.8 1024253
02:00−6зсз1198100 1.0 102534
05:00−8юз119678 0.1 102521
08:00−6ю128739 0.1 1026109
11:00+1ю13630 0.0 10251031
14:00+3зюз355733 0.0 10231381
17:000зюз376667 0.0 1022811
20:00−3ююз3107583 0.0 1022531
12 марта, пт
пт1223:00−3ююз31278100 0.1 1021795
02:00−1юз31571100 0.2 1019819
05:00−1юз31674100 0.0 1017575
08:000зюз71871100 0.2 1018605
11:00+2юз41570100 0.3 1017591
14:00+4з61173100 0.3 10171154
17:00+3зюз41177100 0.0 1017802
20:000зюз2988100 0.0 1018323